Date String (YYYY-MM-DD hh:mm:ss) UTC,Instrument flags,Ambient pressure (hPa),Sample flow (lpm),Bypass flow (lpm),Sample temperature (°C),Ambient temperature (°C),ASC tube jacket temperature (°C),LED temperature (°C),Box temperature (°C),Sample RH (%),Span deviation,Mass concentration (μg/m³),Mass concentration (μg/m³),Mass concentration (μg/m³)
DateTimeUTC,F1_M11,P_M11,Q1_M11,Q2_M11,T1_M11,T2_M11,T3_M11,T4_M11,T5_M11,U1_M11,ZSPAN_M11,X0_M11,X2_M11,X1_M11
2022-05-09 18:00:00,,0812.7,5.02,0.00,27.8,27.2,00.0,36.8,29.7,20.8,0000.0,0019.11,0007.45,0004.57
2022-05-09 18:01:00,,0812.8,5.00,0.00,27.9,27.2,00.0,36.8,29.7,21.0,0000.0,0021.15,0007.51,0004.56
2022-05-09 18:02:00,,0812.9,4.99,0.00,27.9,27.2,00.0,36.8,29.8,20.8,0000.0,0022.59,0007.57,0004.52
2022-05-09 18:03:00,,0813.0,5.01,0.00,27.9,27.3,00.0,36.8,29.7,20.8,0000.0,0023.11,0007.53,0004.48
2022-05-09 18:04:00,,0812.8,5.00,0.00,27.9,27.3,00.0,36.8,29.7,20.3,0000.0,0023.22,0007.64,0004.47
2022-05-09 18:05:00,,0812.8,5.00,0.00,27.9,27.3,00.0,36.8,29.7,20.2,0000.0,0024.56,0007.70,0004.49
2022-05-09 18:06:00,,0812.8,5.00,0.00,27.9,27.3,00.0,36.8,29.7,20.2,0000.0,0024.26,0007.76,0004.51
2022-05-09 18:07:00,,0812.8,5.00,0.00,27.9,27.3,00.0,36.8,29.7,20.3,0000.0,0025.16,0007.73,0004.52
2022-05-09 18:08:00,,0812.8,5.00,0.00,27.9,27.3,00.0,36.8,29.8,20.3,0000.0,0025.56,0007.62,0004.48
2022-05-09 18:09:00,,0812.6,5.01,0.00,27.9,27.3,00.0,36.9,29.8,20.4,0000.1,0026.00,0007.52,0004.44
2022-05-09 18:10:00,,0812.7,5.00,0.00,27.9,27.3,00.0,36.9,29.8,20.4,0000.0,0025.82,0007.44,0004.41
2022-05-09 18:11:00,,0812.8,4.99,0.00,28.0,27.3,00.0,36.9,29.8,20.3,0000.0,0025.69,0007.45,0004.39
2022-05-09 18:12:00,,0812.8,5.00,0.00,28.0,27.4,00.0,36.9,29.8,20.2,0000.0,0024.53,0007.44,0004.37
2022-05-09 18:13:00,,0812.8,5.00,0.00,28.0,27.4,00.0,36.9,29.8,19.9,0000.0,0023.70,0007.37,0004.38
2022-05-09 18:14:00,,0812.7,5.02,0.00,28.0,27.4,00.0,36.9,29.8,20.1,0000.0,0022.38,0007.31,0004.38
2022-05-09 18:15:00,,0812.8,5.00,0.00,28.0,27.4,00.0,36.9,29.8,20.2,0000.0,0022.57,0007.20,0004.34
2022-05-09 18:16:00,,0812.9,4.99,0.00,28.0,27.4,00.0,36.9,29.8,19.9,0000.0,0021.39,0007.10,0004.30
2022-05-09 18:17:00,,0812.8,5.00,0.00,28.0,27.4,00.0,36.9,29.8,20.0,0000.0,0022.51,0006.96,0004.24
2022-05-09 18:18:00,,0812.8,5.00,0.00,28.0,27.4,00.0,36.9,29.8,20.0,0000.0,0022.29,0006.97,0004.20
2022-05-09 18:19:00,,0812.8,5.01,0.00,28.0,27.4,00.0,36.9,29.8,20.5,0000.0,0022.16,0007.06,0004.19
2022-05-09 18:20:00,,0812.8,5.00,0.00,28.0,27.4,00.0,36.9,29.8,20.4,0000.0,0021.73,0007.12,0004.21
2022-05-09 18:21:00,,0812.8,5.00,0.00,28.0,27.4,00.0,36.9,29.8,19.9,0000.0,0022.64,0007.13,0004.22
2022-05-09 18:22:00,,0812.8,5.00,0.00,28.0,27.4,00.0,36.9,29.8,19.6,0000.0,0023.25,0007.12,0004.24
2022-05-09 18:23:00,,0812.8,4.99,0.00,28.0,27.5,00.0,36.9,29.8,19.5,0000.0,0023.90,0007.11,0004.24
2022-05-09 18:24:00,,0812.8,4.99,0.00,28.0,27.5,00.0,36.9,29.8,19.6,0000.0,0023.34,0007.09,0004.22
2022-05-09 18:25:00,,0812.8,5.00,0.00,28.0,27.5,00.0,37.0,29.9,19.4,0000.0,0024.11,0007.12,0004.21
2022-05-09 18:26:00,,0812.7,5.01,0.00,28.0,27.5,00.0,37.0,29.9,19.7,0000.0,0025.14,0007.16,0004.20
2022-05-09 18:27:00,,0812.8,5.01,0.00,28.0,27.5,00.0,37.0,29.9,19.5,0000.9,0025.68,0007.18,0004.19
2022-05-09 18:28:00,,0812.9,4.99,0.00,28.1,27.4,00.0,37.0,29.9,19.5,0001.7,0025.94,0007.24,0004.20
2022-05-09 18:29:00,,0812.7,4.99,0.00,28.1,27.5,00.0,37.0,29.9,19.6,0002.0,0025.33,0007.25,0004.20
2022-05-09 18:30:00,,0812.5,5.00,0.00,28.1,27.5,00.0,37.0,29.9,19.8,0002.6,0025.58,0007.23,0004.17
2022-05-09 18:31:00,,0812.6,5.01,0.00,28.1,27.5,00.0,37.0,29.9,19.7,0003.1,0025.92,0007.29,0004.14
2022-05-09 18:32:00,,0812.8,5.00,0.00,28.1,27.5,00.0,37.0,29.9,19.3,0002.7,0025.76,0007.40,0004.12
2022-05-09 18:33:00,,0812.8,4.99,0.00,28.1,27.5,00.0,37.0,29.9,19.2,0003.1,0025.80,0007.45,0004.09
2022-05-09 18:34:00,,0812.7,5.01,0.00,28.1,27.5,00.0,37.0,29.9,19.4,0002.7,0025.92,0007.48,0004.09
2022-05-09 18:35:00,,0812.8,5.00,0.00,28.1,27.5,00.0,37.0,29.9,19.1,0001.1,0025.29,0007.52,0004.11
2022-05-09 18:36:00,,0812.8,5.00,0.00,28.1,27.5,00.0,37.0,29.9,19.6,0000.1,0024.68,0007.46,0004.10
2022-05-09 18:37:00,,0812.8,5.00,0.00,28.1,27.5,00.0,37.0,29.9,19.5,0000.0,0024.10,0007.50,0004.09
2022-05-09 18:38:00,,0812.8,5.00,0.00,28.1,27.5,00.0,37.0,29.9,19.3,0000.0,0023.63,0007.52,0004.10
2022-05-09 18:39:00,,0812.8,5.00,0.00,28.1,27.5,00.0,37.0,29.9,19.2,0000.0,0022.95,0007.56,0004.08
2022-05-09 18:40:00,,0812.7,5.01,0.00,28.1,27.4,00.0,37.0,29.9,19.4,0000.0,0022.04,0007.56,0004.07
2022-05-09 18:41:00,,0812.6,5.00,0.00,28.1,27.4,00.0,37.0,29.9,19.1,0000.0,0021.32,0007.53,0004.07
2022-05-09 18:42:00,,0812.6,5.00,0.00,28.0,27.3,00.0,37.0,29.9,18.6,0000.0,0021.84,0007.49,0004.11
2022-05-09 18:43:00,,0812.7,4.99,0.00,28.0,27.3,00.0,37.0,29.8,19.0,0000.0,0021.26,0007.38,0004.13
2022-05-09 18:44:00,,0812.7,5.00,0.00,28.0,27.3,00.0,37.0,29.8,18.9,0000.0,0021.57,0007.35,0004.13
2022-05-09 18:45:00,,0812.8,5.00,0.00,28.0,27.3,00.0,37.0,29.8,19.0,0000.0,0021.35,0007.38,0004.12
2022-05-09 18:46:00,,0812.8,5.00,0.00,28.0,27.4,00.0,37.0,29.8,19.0,0000.0,0021.74,0007.35,0004.09
2022-05-09 18:47:00,,0812.8,5.01,0.00,28.1,27.4,00.0,37.0,29.8,19.0,0000.0,0022.39,0007.40,0004.07
2022-05-09 18:48:00,,0812.9,5.00,0.00,28.1,27.4,00.0,37.0,29.9,19.0,0000.0,0022.98,0007.36,0004.06
2022-05-09 18:49:00,,0812.8,5.01,0.00,28.1,27.4,00.0,37.0,29.9,18.6,0000.0,0022.68,0007.32,0004.06
2022-05-09 18:50:00,,0812.8,5.00,0.00,28.1,27.4,00.0,37.0,29.9,18.7,0000.0,0022.83,0007.36,0004.06
2022-05-09 18:51:00,,0812.8,5.01,0.00,28.1,27.5,00.0,37.0,29.9,18.8,0000.0,0023.19,0007.38,0004.04
2022-05-09 18:52:00,,0812.8,5.00,0.00,28.1,27.5,00.0,37.1,29.9,19.0,0000.0,0023.94,0007.40,0004.02
2022-05-09 18:53:00,,0812.8,5.03,0.00,28.1,27.5,00.0,37.1,30.0,19.3,0000.0,0023.18,0007.39,0003.96
2022-05-09 18:54:00,,0812.8,5.01,0.00,28.1,27.5,00.0,37.1,29.9,18.5,0000.0,0023.76,0007.49,0003.94
2022-05-09 18:55:00,,0812.7,5.01,0.00,28.1,27.5,00.0,37.1,29.9,18.4,0000.0,0024.36,0007.52,0003.96
2022-05-09 18:56:00,,0812.8,5.00,0.00,28.1,27.5,00.0,37.1,29.9,18.6,0000.0,0025.06,0007.47,0003.96
2022-05-09 18:57:00,,0812.8,5.01,0.00,28.1,27.5,00.0,37.1,30.0,18.6,0000.0,0025.33,0007.52,0003.99
2022-05-09 18:58:00,,0812.9,4.99,0.00,28.1,27.6,00.0,37.1,30.0,18.5,0000.0,0025.20,0007.55,0003.99
2022-05-09 18:59:00,,0812.9,5.00,0.00,28.2,27.6,00.0,37.1,30.0,18.8,0000.0,0025.53,0007.64,0003.99
